When you browse on this site, cookies collect data to enhance your experience and personalize the content and advertising you see.
Visit our Privacy Policy to learn more. By continuing to use the site, you agree to this use of cookies and data.
  • în România
  • Lista ţărilor
  • Pe 7 zile
  • Temperatura apei
  • Hartă satelitară
  • Meteo pe hartă
  • Widget-uri
  • user-avatar
    Intrare

    Meteo pe oră la Namibe

    Astăzi, 24 Martie, Duminică

    Timp Temperatura Precipitaţii Vânt Presiune Umiditate
    00:00 +28°C° 0.2 mm 3 m/s 757 mmHg 78%
    01:00 +28°C° 0.2 mm 3 m/s 757 mmHg 78%
    02:00 +28°C° 0.2 mm 3 m/s 757 mmHg 79%
    03:00 +28°C° 0.2 mm 2 m/s 757 mmHg 79%
    04:00 +27°C° 0.2 mm 2 m/s 757 mmHg 79%
    05:00 +27°C° 0.5 mm 2 m/s 757 mmHg 80%
    06:00 +27°C° 0.5 mm 1 m/s 757 mmHg 80%
    07:00 +27°C° 0.5 mm 1 m/s 757 mmHg 80%
    08:00 +28°C° 0.1 mm 1 m/s 757 mmHg 75%
    09:00 +30°C° 0.1 mm 1 m/s 758 mmHg 69%
    10:00 +31°C° 0.1 mm 1 m/s 758 mmHg 64%
    11:00 +31°C° 0 mm 2 m/s 757 mmHg 62%
    12:00 +33°C° 0 mm 4 m/s 757 mmHg 60%
    13:00 +34°C° 0 mm 5 m/s 756 mmHg 57%
    14:00 +33°C° 0 mm 5 m/s 756 mmHg 58%
    15:00 +33°C° 0 mm 5 m/s 755 mmHg 59%
    16:00 +32°C° 0 mm 5 m/s 755 mmHg 59%
    17:00 +30°C° 0.2 mm 5 m/s 755 mmHg 62%
    18:00 +29°C° 0.2 mm 4 m/s 755 mmHg 64%
    19:00 +29°C° 0.2 mm 4 m/s 756 mmHg 67%
    20:00 +29°C° 0.1 mm 4 m/s 756 mmHg 66%
    21:00 +28°C° 0.1 mm 4 m/s 757 mmHg 65%
    22:00 +28°C° 0.1 mm 3 m/s 757 mmHg 65%
    23:00 +28°C° 0 mm 3 m/s 757 mmHg 65%

    Mâine, 25 Martie, Luni

    Timp Temperatura Precipitaţii Vânt Presiune Umiditate
    00:00 +28°C° 0 mm 3 m/s 757 mmHg 66%
    01:00 +27°C° 0 mm 3 m/s 757 mmHg 67%
    02:00 +27°C° 0 mm 3 m/s 756 mmHg 68%
    03:00 +27°C° 0 mm 3 m/s 756 mmHg 68%
    04:00 +27°C° 0 mm 2 m/s 756 mmHg 69%
    05:00 +27°C° 0 mm 2 m/s 756 mmHg 69%
    06:00 +27°C° 0 mm 2 m/s 756 mmHg 69%
    07:00 +27°C° 0 mm 3 m/s 756 mmHg 68%
    08:00 +28°C° 0 mm 2 m/s 756 mmHg 64%
    09:00 +29°C° 0 mm 2 m/s 756 mmHg 59%
    10:00 +30°C° 0 mm 2 m/s 756 mmHg 55%
    11:00 +31°C° 0 mm 3 m/s 756 mmHg 54%
    12:00 +31°C° 0 mm 3 m/s 755 mmHg 53%
    13:00 +32°C° 0 mm 4 m/s 754 mmHg 52%
    14:00 +32°C° 0 mm 4 m/s 754 mmHg 53%
    15:00 +30°C° 0 mm 4 m/s 753 mmHg 55%
    16:00 +30°C° 0 mm 5 m/s 753 mmHg 56%
    17:00 +29°C° 0 mm 4 m/s 753 mmHg 60%
    18:00 +28°C° 0 mm 3 m/s 754 mmHg 63%
    19:00 +27°C° 0 mm 2 m/s 754 mmHg 67%
    20:00 +27°C° 0 mm 2 m/s 755 mmHg 67%
    21:00 +27°C° 0 mm 2 m/s 756 mmHg 68%
    22:00 +27°C° 0 mm 2 m/s 757 mmHg 69%
    23:00 +27°C° 0 mm 2 m/s 757 mmHg 72%

    Poimâine, 26 Martie, Marţi

    Timp Temperatura Precipitaţii Vânt Presiune Umiditate
    00:00 +27°C° 0 mm 2 m/s 756 mmHg 75%
    01:00 +26°C° 0 mm 2 m/s 756 mmHg 78%
    02:00 +26°C° 0.1 mm 2 m/s 756 mmHg 78%
    03:00 +26°C° 0.1 mm 2 m/s 756 mmHg 79%
    04:00 +26°C° 0.1 mm 2 m/s 755 mmHg 80%
    05:00 +26°C° 0 mm 2 m/s 756 mmHg 81%
    06:00 +26°C° 0 mm 2 m/s 756 mmHg 81%
    07:00 +26°C° 0 mm 2 m/s 757 mmHg 82%
    08:00 +27°C° 0 mm 2 m/s 757 mmHg 79%
    09:00 +27°C° 0 mm 3 m/s 758 mmHg 77%
    10:00 +28°C° 0 mm 3 m/s 758 mmHg 74%
    11:00 +29°C° 0 mm 4 m/s 758 mmHg 72%
    12:00 +30°C° 0 mm 5 m/s 757 mmHg 69%
    13:00 +32°C° 0 mm 6 m/s 757 mmHg 67%
    14:00 +30°C° 0 mm 6 m/s 756 mmHg 67%
    15:00 +30°C° 0 mm 5 m/s 756 mmHg 68%
    16:00 +29°C° 0 mm 5 m/s 755 mmHg 69%
    17:00 +29°C° 0 mm 5 m/s 756 mmHg 72%
    18:00 +28°C° 0 mm 4 m/s 757 mmHg 74%
    19:00 +27°C° 0 mm 4 m/s 757 mmHg 77%
    20:00 +27°C° 0 mm 3 m/s 758 mmHg 78%
    21:00 +27°C° 0 mm 2 m/s 759 mmHg 78%
    22:00 +27°C° 0 mm 1 m/s 759 mmHg 79%
    23:00 +27°C° 0 mm 1 m/s 759 mmHg 78%

    27 Martie, Miercuri

    Timp Temperatura Precipitaţii Vânt Presiune Umiditate
    00:00 +27°C° 0 mm 1 m/s 759 mmHg 78%
    01:00 +27°C° 0 mm 1 m/s 758 mmHg 78%
    02:00 +27°C° 0 mm 1 m/s 758 mmHg 78%
    03:00 +28°C° 0 mm 1 m/s 757 mmHg 77%
    04:00 +28°C° 0 mm 1 m/s 757 mmHg 76%
    05:00 +28°C° 0.1 mm 1 m/s 757 mmHg 77%
    06:00 +28°C° 0.1 mm 1 m/s 758 mmHg 77%
    07:00 +28°C° 0.1 mm 1 m/s 758 mmHg 78%
    08:00 +29°C° 0 mm 1 m/s 758 mmHg 73%
    09:00 +30°C° 0 mm 1 m/s 759 mmHg 68%
    10:00 +31°C° 0 mm 1 m/s 759 mmHg 63%
    11:00 +32°C° 0 mm 2 m/s 758 mmHg 61%
    12:00 +34°C° 0 mm 4 m/s 757 mmHg 58%
    13:00 +35°C° 0 mm 5 m/s 757 mmHg 56%
    14:00 +34°C° 0 mm 5 m/s 756 mmHg 58%
    15:00 +33°C° 0 mm 5 m/s 756 mmHg 61%
    16:00 +33°C° 0 mm 5 m/s 755 mmHg 64%
    17:00 +32°C° 0.1 mm 5 m/s 756 mmHg 67%
    18:00 +30°C° 0.1 mm 4 m/s 757 mmHg 71%
    19:00 +29°C° 0.1 mm 3 m/s 757 mmHg 75%
    20:00 +29°C° 0.7 mm 3 m/s 758 mmHg 74%
    21:00 +29°C° 0.7 mm 2 m/s 759 mmHg 74%
    22:00 +29°C° 0.7 mm 1 m/s 760 mmHg 74%
    23:00 +29°C° 0.6 mm 2 m/s 759 mmHg 73%

    28 Martie, Joi

    Timp Temperatura Precipitaţii Vânt Presiune Umiditate
    00:00 +29°C° 0.6 mm 2 m/s 759 mmHg 73%
    01:00 +29°C° 0.6 mm 3 m/s 759 mmHg 72%
    02:00 +29°C° 0.3 mm 3 m/s 758 mmHg 72%
    03:00 +29°C° 0.3 mm 2 m/s 758 mmHg 71%
    04:00 +29°C° 0.3 mm 2 m/s 757 mmHg 71%
    05:00 +29°C° 0.1 mm 2 m/s 758 mmHg 70%
    06:00 +29°C° 0.1 mm 2 m/s 758 mmHg 69%
    07:00 +30°C° 0.1 mm 3 m/s 758 mmHg 68%
    08:00 +31°C° 0 mm 3 m/s 758 mmHg 62%
    09:00 +34°C° 0 mm 3 m/s 758 mmHg 57%
    10:00 +35°C° 0 mm 3 m/s 758 mmHg 51%
    11:00 +36°C° 0 mm 4 m/s 757 mmHg 49%
    12:00 +37°C° 0 mm 5 m/s 757 mmHg 47%
    13:00 +38°C° 0 mm 6 m/s 756 mmHg 45%
    14:00 +36°C° 0.1 mm 6 m/s 755 mmHg 48%
    15:00 +35°C° 0.1 mm 6 m/s 755 mmHg 50%
    16:00 +34°C° 0.1 mm 7 m/s 754 mmHg 53%
    17:00 +33°C° 0.9 mm 5 m/s 755 mmHg 55%
    18:00 +32°C° 0.9 mm 4 m/s 756 mmHg 58%
    19:00 +30°C° 0.9 mm 3 m/s 756 mmHg 60%
    20:00 +29°C° 1.2 mm 2 m/s 757 mmHg 62%
    21:00 +29°C° 1.2 mm 2 m/s 757 mmHg 64%
    22:00 +29°C° 1.2 mm 1 m/s 758 mmHg 66%
    23:00 +28°C° 3.5 mm 1 m/s 758 mmHg 71%

    29 Martie, Vineri

    Timp Temperatura Precipitaţii Vânt Presiune Umiditate
    00:00 +27°C° 3.5 mm 1 m/s 758 mmHg 76%
    01:00 +27°C° 3.5 mm 1 m/s 758 mmHg 81%
    02:00 +27°C° 1.6 mm 2 m/s 758 mmHg 80%
    03:00 +27°C° 1.6 mm 2 m/s 757 mmHg 78%
    04:00 +28°C° 1.6 mm 2 m/s 757 mmHg 77%
    05:00 +28°C° 0 mm 2 m/s 757 mmHg 75%
    06:00 +29°C° 0 mm 2 m/s 758 mmHg 72%
    07:00 +29°C° 0 mm 2 m/s 758 mmHg 70%
    08:00 +31°C° 0 mm 2 m/s 758 mmHg 64%
    09:00 +32°C° 0 mm 2 m/s 758 mmHg 58%
    10:00 +35°C° 0 mm 2 m/s 758 mmHg 52%
    11:00 +35°C° 0 mm 3 m/s 757 mmHg 50%
    12:00 +36°C° 0 mm 4 m/s 756 mmHg 48%
    13:00 +37°C° 0 mm 5 m/s 755 mmHg 46%
    14:00 +36°C° 0.1 mm 6 m/s 755 mmHg 50%
    15:00 +35°C° 0.1 mm 6 m/s 754 mmHg 53%
    16:00 +34°C° 0.1 mm 7 m/s 754 mmHg 57%
    17:00 +33°C° 0.2 mm 6 m/s 755 mmHg 62%
    18:00 +30°C° 0.2 mm 5 m/s 755 mmHg 66%
    19:00 +29°C° 0.2 mm 4 m/s 756 mmHg 70%
    20:00 +29°C° 0.3 mm 4 m/s 756 mmHg 72%
    21:00 +28°C° 0.3 mm 3 m/s 757 mmHg 73%
    22:00 +28°C° 0.3 mm 2 m/s 757 mmHg 74%
    23:00 +28°C° 0.1 mm 2 m/s 757 mmHg 74%
    Arată mai mult